Meteo pe oră la Aberfoyle

Astăzi, 5 August, Joi

Timp Temperatura Precipitaţii Vânt Presiune Umiditate
00:00 +12°C° 0 mm 1 m/s 732 mmHg 88%
01:00 +12°C° 0 mm 1 m/s 731 mmHg 89%
02:00 +12°C° 0 mm 1 m/s 731 mmHg 89%
03:00 +12°C° 0 mm 1 m/s 730 mmHg 90%
04:00 +12°C° 0 mm 1 m/s 730 mmHg 90%
05:00 +12°C° 0 mm 1 m/s 730 mmHg 91%
06:00 +12°C° 0 mm 1 m/s 729 mmHg 91%
07:00 +13°C° 0 mm 2 m/s 729 mmHg 86%
08:00 +15°C° 0 mm 2 m/s 729 mmHg 80%
09:00 +16°C° 0 mm 2 m/s 728 mmHg 74%
10:00 +16°C° 0.2 mm 3 m/s 728 mmHg 72%
11:00 +17°C° 0.2 mm 3 m/s 727 mmHg 70%
12:00 +17°C° 0.2 mm 3 m/s 727 mmHg 68%
13:00 +17°C° 0.1 mm 3 m/s 726 mmHg 70%
14:00 +17°C° 0.1 mm 3 m/s 726 mmHg 72%
15:00 +17°C° 0.1 mm 2 m/s 726 mmHg 74%
16:00 +16°C° 0.2 mm 2 m/s 725 mmHg 79%
17:00 +15°C° 0.2 mm 2 m/s 725 mmHg 83%
18:00 +15°C° 0.2 mm 2 m/s 724 mmHg 88%
19:00 +14°C° 0.2 mm 2 m/s 724 mmHg 90%
20:00 +14°C° 0.2 mm 2 m/s 724 mmHg 91%
21:00 +14°C° 0.2 mm 2 m/s 724 mmHg 92%
22:00 +14°C° 1.2 mm 2 m/s 723 mmHg 94%
23:00 +14°C° 1.2 mm 2 m/s 723 mmHg 96%

Mâine, 6 August, Vineri

Timp Temperatura Precipitaţii Vânt Presiune Umiditate
00:00 +13°C° 1.2 mm 2 m/s 723 mmHg 98%
01:00 +13°C° 1 mm 2 m/s 722 mmHg 98%
02:00 +14°C° 1 mm 2 m/s 722 mmHg 98%
03:00 +14°C° 1 mm 2 m/s 722 mmHg 98%
04:00 +14°C° 0.7 mm 2 m/s 721 mmHg 98%
05:00 +14°C° 0.7 mm 1 m/s 721 mmHg 98%
06:00 +14°C° 0.7 mm 1 m/s 721 mmHg 98%
07:00 +15°C° 0.2 mm 1 m/s 721 mmHg 96%
08:00 +15°C° 0.2 mm 1 m/s 721 mmHg 94%
09:00 +16°C° 0.2 mm 2 m/s 721 mmHg 92%
10:00 +16°C° 0.7 mm 2 m/s 721 mmHg 91%
11:00 +16°C° 0.7 mm 2 m/s 721 mmHg 89%
12:00 +17°C° 0.7 mm 2 m/s 720 mmHg 88%
13:00 +17°C° 0.9 mm 2 m/s 720 mmHg 87%
14:00 +18°C° 0.9 mm 1 m/s 720 mmHg 87%
15:00 +18°C° 0.9 mm 1 m/s 720 mmHg 86%
16:00 +18°C° 1.2 mm 1 m/s 720 mmHg 88%
17:00 +18°C° 1.2 mm 1 m/s 720 mmHg 89%
18:00 +16°C° 1.2 mm 1 m/s 720 mmHg 91%
19:00 +16°C° 1 mm 1 m/s 720 mmHg 93%
20:00 +15°C° 1 mm 1 m/s 720 mmHg 95%
21:00 +14°C° 1 mm 1 m/s 720 mmHg 98%
22:00 +14°C° 1.2 mm 1 m/s 720 mmHg 98%
23:00 +14°C° 1.2 mm 1 m/s 720 mmHg 98%

Poimâine, 7 August, Sâmbătă

Timp Temperatura Precipitaţii Vânt Presiune Umiditate
00:00 +14°C° 1.2 mm 1 m/s 720 mmHg 98%
01:00 +14°C° 1.3 mm 1 m/s 720 mmHg 98%
02:00 +14°C° 1.3 mm 1 m/s 720 mmHg 98%
03:00 +14°C° 1.3 mm 1 m/s 720 mmHg 98%
04:00 +14°C° 0.6 mm 1 m/s 720 mmHg 97%
05:00 +14°C° 0.6 mm 1 m/s 720 mmHg 97%
06:00 +14°C° 0.6 mm 1 m/s 720 mmHg 97%
07:00 +14°C° 0.8 mm 1 m/s 720 mmHg 96%
08:00 +14°C° 0.8 mm 1 m/s 720 mmHg 95%
09:00 +14°C° 0.8 mm 1 m/s 720 mmHg 95%
10:00 +14°C° 0.5 mm 1 m/s 720 mmHg 94%
11:00 +14°C° 0.5 mm 0 m/s 720 mmHg 94%
12:00 +14°C° 0.5 mm 0 m/s 720 mmHg 94%
13:00 +14°C° 0.4 mm 0 m/s 720 mmHg 94%
14:00 +14°C° 0.4 mm 0 m/s 720 mmHg 94%
15:00 +14°C° 0.4 mm 0 m/s 720 mmHg 93%
16:00 +14°C° 0.2 mm 0 m/s 721 mmHg 93%
17:00 +14°C° 0.2 mm 0 m/s 721 mmHg 93%
18:00 +14°C° 0.2 mm 0 m/s 721 mmHg 93%
19:00 +14°C° 0.1 mm 0 m/s 721 mmHg 94%
20:00 +14°C° 0.1 mm 1 m/s 721 mmHg 95%
21:00 +14°C° 0.1 mm 1 m/s 721 mmHg 96%
22:00 +14°C° 0 mm 1 m/s 721 mmHg 96%
23:00 +13°C° 0 mm 1 m/s 721 mmHg 96%

8 August, Duminică

Timp Temperatura Precipitaţii Vânt Presiune Umiditate
00:00 +13°C° 0 mm 1 m/s 722 mmHg 96%
01:00 +13°C° 0 mm 1 m/s 722 mmHg 96%
02:00 +13°C° 0 mm 1 m/s 722 mmHg 97%
03:00 +13°C° 0 mm 1 m/s 722 mmHg 97%
04:00 +13°C° 0 mm 1 m/s 722 mmHg 97%
05:00 +13°C° 0 mm 1 m/s 722 mmHg 97%
06:00 +14°C° 0 mm 1 m/s 722 mmHg 96%
07:00 +14°C° 0.1 mm 1 m/s 722 mmHg 93%
08:00 +15°C° 0.1 mm 1 m/s 723 mmHg 90%
09:00 +16°C° 0.1 mm 2 m/s 723 mmHg 87%
10:00 +17°C° 0.4 mm 2 m/s 723 mmHg 84%
11:00 +17°C° 0.4 mm 2 m/s 723 mmHg 81%
12:00 +18°C° 0.4 mm 2 m/s 724 mmHg 78%
13:00 +18°C° 0.4 mm 3 m/s 724 mmHg 78%
14:00 +18°C° 0.4 mm 3 m/s 724 mmHg 79%
15:00 +18°C° 0.4 mm 4 m/s 725 mmHg 79%
16:00 +18°C° 0.3 mm 4 m/s 725 mmHg 81%
17:00 +17°C° 0.3 mm 3 m/s 726 mmHg 82%
18:00 +17°C° 0.3 mm 3 m/s 726 mmHg 84%
19:00 +16°C° 0 mm 3 m/s 727 mmHg 87%
20:00 +14°C° 0 mm 3 m/s 728 mmHg 89%
21:00 +13°C° 0 mm 3 m/s 728 mmHg 92%
22:00 +13°C° 0 mm 3 m/s 729 mmHg 93%
23:00 +13°C° 0 mm 3 m/s 729 mmHg 93%

9 August, Luni

Timp Temperatura Precipitaţii Vânt Presiune Umiditate
00:00 +13°C° 0 mm 3 m/s 730 mmHg 94%
01:00 +13°C° 0.1 mm 3 m/s 730 mmHg 93%
02:00 +13°C° 0.1 mm 3 m/s 730 mmHg 93%
03:00 +13°C° 0.1 mm 3 m/s 730 mmHg 92%
04:00 +12°C° 0.2 mm 3 m/s 731 mmHg 93%
05:00 +12°C° 0.2 mm 3 m/s 731 mmHg 93%
06:00 +12°C° 0.2 mm 3 m/s 732 mmHg 94%
07:00 +13°C° 0 mm 3 m/s 732 mmHg 87%
08:00 +14°C° 0 mm 3 m/s 733 mmHg 81%
09:00 +14°C° 0 mm 3 m/s 733 mmHg 74%
10:00 +14°C° 0 mm 3 m/s 734 mmHg 75%
11:00 +14°C° 0 mm 3 m/s 734 mmHg 76%
12:00 +14°C° 0 mm 3 m/s 734 mmHg 77%
13:00 +14°C° 0 mm 3 m/s 734 mmHg 82%
14:00 +14°C° 0 mm 3 m/s 735 mmHg 87%
15:00 +14°C° 0 mm 2 m/s 735 mmHg 91%
16:00 +14°C° 0.1 mm 2 m/s 735 mmHg 93%
17:00 +14°C° 0.1 mm 2 m/s 735 mmHg 95%
18:00 +14°C° 0.1 mm 2 m/s 735 mmHg 96%
19:00 +14°C° 0.1 mm 2 m/s 735 mmHg 97%
20:00 +14°C° 0.1 mm 2 m/s 736 mmHg 97%
21:00 +14°C° 0.1 mm 2 m/s 736 mmHg 98%
22:00 +14°C° 0.1 mm 2 m/s 736 mmHg 98%
23:00 +14°C° 0.1 mm 2 m/s 736 mmHg 98%

10 August, Marţi

Timp Temperatura Precipitaţii Vânt Presiune Umiditate
00:00 +14°C° 0.1 mm 2 m/s 736 mmHg 98%
01:00 +15°C° 0.2 mm 2 m/s 736 mmHg 98%
02:00 +15°C° 0.2 mm 2 m/s 736 mmHg 98%
03:00 +15°C° 0.2 mm 2 m/s 736 mmHg 98%
04:00 +15°C° 0.6 mm 2 m/s 736 mmHg 98%
05:00 +15°C° 0.6 mm 2 m/s 736 mmHg 98%
06:00 +15°C° 0.6 mm 2 m/s 736 mmHg 98%
07:00 +15°C° 0.3 mm 2 m/s 736 mmHg 98%
08:00 +15°C° 0.3 mm 2 m/s 736 mmHg 98%
09:00 +15°C° 0.3 mm 2 m/s 736 mmHg 97%
10:00 +15°C° 0 mm 2 m/s 736 mmHg 96%
11:00 +16°C° 0 mm 2 m/s 736 mmHg 96%
12:00 +16°C° 0 mm 2 m/s 736 mmHg 95%
13:00 +16°C° 0 mm 2 m/s 736 mmHg 94%
14:00 +17°C° 0 mm 3 m/s 736 mmHg 93%
15:00 +17°C° 0 mm 3 m/s 735 mmHg 91%
16:00 +17°C° 0.5 mm 3 m/s 735 mmHg 92%
17:00 +16°C° 0.5 mm 3 m/s 735 mmHg 93%
18:00 +16°C° 0.5 mm 2 m/s 734 mmHg 94%
19:00 +16°C° 1.5 mm 3 m/s 734 mmHg 95%
20:00 +16°C° 1.5 mm 3 m/s 734 mmHg 96%
21:00 +14°C° 1.5 mm 3 m/s 734 mmHg 98%
22:00 +15°C° 1.3 mm 2 m/s 734 mmHg 97%
23:00 +14°C° 1.3 mm 2 m/s 734 mmHg 97%
Arată mai mult

Formular de consimțământ

Meteoprog și furnizorii noștri de servicii pot stoca și accesa date personale, precum cookies, identificatori de dispozitiv sau alte tehnologii similare pe dispozitivul dumneavoastră și procesa astfel de date pentru a personaliza conținutul și reclamele, dar și pentru a oferi caracteristici de social media și pentru a analiza traficul.

  • Stocarea și/sau accesarea informațiilor pe dispozitivul dumneavoastră

    Cookies, identificatori de dispozitiv sau alte informații pot fi stocate sau accesate pe dispozitiv în scopurile indicate mai sus.

  • Reclame și conținut personalizat, evaluarea reclamelor și a conținutului, informații despre audiențe și dezvoltarea produselor

    Reclamele și conținutul pot fi personalizate pe baza unui profil. Pot fi adăugate date suplimentare pentru a personaliza mai bine reclamele și conținutul. Performanța reclamelor și conținutului poate fi măsurată. Pot fi obținute informații despre utilizatorii care au văzut reclamele și conținutul. Aceste date pot fi utilizate pentru a dezvolta sau îmbunătăți experiența utilizatorilor, sistemele și software-ul.

Dând clic pe ‘Sunt de acord’, permiteți utilizarea cookie-urilor menționate, a identificatorilor de dispozitiv, balizelor web sau altor tehnologii similare. Setările pot fi modificate din browser-ul dispozitivului dumneavoastră.

În anumite scopuri, interesele legitime pot prima asupra consimțământului. Puteți citi mai multe informații în acest sens în Politica privind Confidențialitatea Datelor și Cookie.